Location: Unspecified
(0.0000°N, 0.0000°E)
Time: 00:58:55
(UTC+00:00)

deb Delta 104 - Pass Details

Date: 13 March 2026
Orbit: 1339 x 1585 km, 100.8° (Epoch: 14 April)

Event Time Altitude Azimuth Distance (km) Brightness Sun altitude
Exits shadow 20:47:59 19° 175° (S) 3,109 ? -39.6°
Drops below altitude 10° 20:50:09 10° 180° (S) 3,791 ? -40.1°
Sets 20:53:07 0° 184° (S) 4,777 ? -40.9°
